Grand Junction, CO

2:21 AM MDT on August 24, 2019 (GMT -0600)
Walker

Weather History for KGJT - May, 2019

Change the Weather History Date:

Friday, May 3, 2019

  Actual Average Record
Temperature  
Mean Temperature 50 °F 57 °F  
Max Temperature 68 °F 71 °F 91 °F (1947)
Min Temperature 32 °F 43 °F 29 °F (1967)
Degree Days  
Heating Degree Days 15 8  
Month to date heating degree days 50 25  
Since 1 July heating degree days 5447 5459  
Cooling Degree Days 0 0  
Month to date cooling degree days 0 0  
Year to date cooling degree days 1 3  
Moisture  
Dew Point 30 °F    
Average Humidity 54    
Maximum Humidity 85    
Minimum Humidity 22    
Precipitation  
Precipitation 0.00 in 0.03 in 1.01 in (1905)
Month to date precipitation 0.03 0.09  
Year to date precipitation 5.08 3.04  
Snow  
Snow 0.00 in 0.00 in 2.40 in (1905)
Month to date snowfall 0.0 0.0  
Since 1 July snowfall 17.4 19.0  
Snow Depth 0.00 in    
Sea Level Pressure  
Sea Level Pressure 29.96 in    
Wind  
Wind Speed 7 mph (ENE)    
Max Wind Speed 16 mph    
Max Gust Speed 21 mph    
Visibility 10 miles    
Events      
T = Trace of Precipitation, MM = Missing Value Source: NWS Daily Summary

Daily Weather History Graph

Daily Weather History Graph

Search for Another Location

Airport or City:

Astronomy

May. 03, 2019 Rise Set
Actual Time 6:13 AM MDT 8:08 PM MDT
Civil Twilight 5:44 AM MDT 8:38 PM MDT
Nautical Twilight 5:09 AM MDT 9:13 PM MDT
Astronomical Twilight 4:31 AM MDT 9:51 PM MDT
Moon 5:55 AM MDT (5/3) 7:00 PM MDT (5/3)
Length of Visible Light 14h 53m
Length of Day
13h 55m
Waning Crescent, 2% of the Moon is Illuminated
May 3
Waning Crescent
May 4
New
May 11
First Quarter
May 18
Full
May 26
Last Quarter

Hourly Weather History & Observations

Time (MDT) Temp. Windchill Dew Point Humidity Pressure Visibility Wind Dir Wind Speed Gust Speed Precip Events Conditions
12:53 AM 39.0 °F 36.8 °F 33.1 °F 79% 29.98 in 10.0 mi East 3.5 mph - N/A   Clear
1:53 AM 37.9 °F 34.4 °F 33.1 °F 83% 29.98 in 10.0 mi East 4.6 mph - N/A   Clear
2:53 AM 41.0 °F 39.0 °F 30.9 °F 67% 29.96 in 10.0 mi Variable 3.5 mph - N/A   Clear
3:53 AM 41.0 °F 38.0 °F 28.9 °F 62% 29.97 in 10.0 mi ESE 4.6 mph - N/A   Clear
4:53 AM 36.0 °F - 30.9 °F 82% 29.98 in 10.0 mi Calm Calm - N/A   Clear
5:53 AM 33.1 °F 28.7 °F 28.9 °F 85% 30.01 in 10.0 mi ENE 4.6 mph - N/A   Clear
6:53 AM 35.1 °F 32.2 °F 30.9 °F 85% 30.03 in 10.0 mi East 3.5 mph - N/A   Clear
7:53 AM 44.1 °F 41.5 °F 33.1 °F 65% 30.03 in 10.0 mi SE 4.6 mph - N/A   Clear
8:53 AM 50.0 °F - 32.0 °F 50% 30.03 in 10.0 mi SSE 10.4 mph - N/A   Clear
9:53 AM 54.0 °F - 28.9 °F 38% 30.02 in 10.0 mi SE 10.4 mph - N/A   Clear
10:53 AM 57.0 °F - 27.0 °F 32% 30.01 in 10.0 mi SE 8.1 mph - N/A   Clear
11:53 AM 61.0 °F - 28.0 °F 29% 30.00 in 10.0 mi Variable 5.8 mph - N/A   Clear
12:53 PM 63.0 °F - 24.1 °F 23% 29.99 in 10.0 mi ESE 6.9 mph - N/A   Clear
1:53 PM 64.9 °F - 24.1 °F 21% 29.95 in 10.0 mi Variable 5.8 mph - N/A   Clear
2:53 PM 66.0 °F - 26.1 °F 22% 29.92 in 10.0 mi NNW 10.4 mph - N/A   Clear
3:53 PM 66.9 °F - 26.1 °F 21% 29.91 in 10.0 mi NW 17.3 mph - N/A   Clear
4:53 PM 66.9 °F - 26.1 °F 21% 29.90 in 10.0 mi WNW 12.7 mph - N/A   Clear
5:53 PM 66.9 °F - 27.0 °F 22% 29.91 in 10.0 mi WNW 9.2 mph - N/A   Clear
6:53 PM 64.9 °F - 26.1 °F 23% 29.90 in 10.0 mi NNW 5.8 mph - N/A   Clear
7:53 PM 62.1 °F - 30.0 °F 30% 29.88 in 10.0 mi North 6.9 mph - N/A   Clear
8:53 PM 55.9 °F - 33.1 °F 42% 29.90 in 10.0 mi NNE 8.1 mph - N/A   Clear
9:53 PM 53.1 °F - 35.1 °F 50% 29.91 in 10.0 mi Calm Calm - N/A   Clear
10:53 PM 52.0 °F - 33.1 °F 49% 29.90 in 10.0 mi ENE 4.6 mph - N/A   Clear
11:53 PM 48.9 °F - 34.0 °F 56% 29.90 in 10.0 mi ENE 6.9 mph - N/A   Clear